STARLINK-1750 (46337 NORAD) Tracking and Keplerian Element Data

This shows tracking and keplerian element data for the satellite.

Feedback or suggestion? Click here.




ElementValue
Catalog46337
NameSTARLINK-1750
Epoch Orbit177
Epoch Day267.58334491
Epoch Year2020
RAAN330.3234
Inclination52.9998
Eccentricity0.0001239
Argument of Perigee56.9557
Mean Anonmoly188.0318
Mean Motion15.62736183
Decay Rate0.00029416
L11 46337U 20062N 20267.58334491 .00029416 00000-0 32613-3 0 9997
L22 46337 52.9998 330.3234 0001239 56.9557 188.0318 15.62736183 1773

Live tracking and technical data element details for STARLINK-1750 (NORAD 46337). STARLINK-1750 can be tracked NOW for your location showing map with azimuth and elevation plus other details from your city location.

Track the satellite on the map from your city or location and see movement details for azimuth, elevation, latitude, longitude, range, height, and movement on the map or in text.







IsCatalogInMostPopularTable: catalog: 46337, numindb: 1
Update: records affected: 1



GetName: 46337 STARLINK-1750

Hit Count: updated at: Thu, 24 Sep 2020 18:06:19 GMT